Current weather by "City, St" or "zip code"  
 

Current Conditions: Kearney, Kearney Municipal Airport, NE

Fair and Breezy


63.0 F

Last Updated on Oct 31 2020, 12:56 pm CDT
Humidity: 29%
Wind Speed: NW 21.9 G 28.8 mph
Barometer 30.02 in
Dewpoint: 30.0 F
Visibility: 10.00 mi
Precip: --
Heat Index: NA
Wind Chill: 60 F
Current conditions at:

Kearney, Kearney Municipal Airport, NE (KEAR)

Lat: 40.73333 Lon: 99

Local Radar Image active severe weather and emergency alerts image image weather storm and storm spotter reports image weather observation monitoring service image
Local
Radar
Active
Alerts
Storm Reports Obs
Monitoring

Sign-up For Email & Text Message Weather Alert Notification Services



Advertise Here

Observation History for Kearney, Kearney Municipal Airport, NE


Time Wind
(mph)
Vis
(mi)
Weather Precip (in) Temperature (F) Relative
Humidity
Wind
Chill
(F)
Heat
Index
(F)
Pressure
Air Dwpt altimeter
(in)
sea level
(mb)
Rmks
12:56 pm CDT NW 21.9 G 28.8 10.00 Fair and Breezy -- 63.0 30.0 29% 60 NA 30.02 1016.2
11:56 am CDT N 21.9 10.00 Fair and Breezy -- 62.0 32.0 32% 59 NA 30.00 1015.6
10:56 am CDT N 24.2 G 29.9 10.00 Fair and Breezy -- 57.0 35.1 44% 52 NA 29.97 1014.7
9:56 am CDT NW 10.4 10.00 Fair -- 48.0 37.0 66% 43 NA 29.94 1014.1
8:56 am CDT W 11.5 10.00 Fair -- 43.0 37.9 82% 37 NA 29.91 1013.4
7:56 am CDT SW 10.4 10.00 Fair -- 42.0 37.9 85% 36 NA 29.88 1012.2
6:56 am CDT S 12.7 10.00 Fair -- 42.0 37.9 85% 35 NA 29.85 1010.8
5:56 am CDT S 10.4 10.00 Fair -- 41.0 37.0 86% 35 NA 29.85 1010.5
4:56 am CDT S 8.1 10.00 Fair -- 41.0 37.0 86% 36 NA 29.87 1011.1
3:56 am CDT S 10.4 10.00 Fair -- 43.0 37.9 82% 37 NA 29.87 1011.2
2:56 am CDT S 12.7 10.00 Fair -- 45.0 37.9 77% 39 NA 29.89 1011.8
1:56 am CDT S 12.7 10.00 Fair -- 48.0 39.0 71% 43 NA 29.92 1012.6
12:56 am CDT S 12.7 10.00 Fair -- 48.0 39.0 71% 43 NA 29.94 1013.4
11:56 pm CDT S 11.5 10.00 Fair -- 47.0 37.0 69% 42 NA 29.96 1014.4
10:56 pm CDT S 10.4 10.00 Fair -- 49.0 36.0 61% 45 NA 29.98 1015.1
9:56 pm CDT S 13.8 10.00 Fair -- 52.0 36.0 55% 47 NA 29.98 1015.5
8:56 pm CDT SE 10.4 10.00 Fair -- 48.0 34.0 58% 43 NA 30.00 1016.8
7:56 pm CDT SE 10.4 10.00 Fair -- 51.0 34.0 52% 47 NA 30.02 1017.2
6:56 pm CDT SE 9.2 10.00 Fair -- 57.0 36.0 45% 55 NA 30.02 1017.3
5:56 pm CDT S 11.5 10.00 Fair -- 66.0 35.1 32% NA NA 30.03 1017.1
4:56 pm CDT S 15.0 10.00 Fair -- 69.0 36.0 30% NA NA 30.05 1017.2
3:56 pm CDT SE 12.7 10.00 Fair -- 69.0 37.0 31% NA NA 30.07 1018.1
2:56 pm CDT 6.9 10.00 Fair -- 67.0 36.0 32% NA NA 30.10 1019.1
1:56 pm CDT SE 4.6 10.00 Fair -- 66.0 36.0 33% NA NA 30.13 1020.3

Regional Weather Observation


Lexington, Jim Kelly Field Airport, NE (KLXN)

Fair
64.0 F

Brewster Field Airport, NE (KHDE)

Fair
64.0 F

Broken Bow, Broken Bow Municipal Airport, NE (KBBW)

Fair and Windy
60.0 F

Grand Island, Central Nebraska Regional Airport, NE (KGRI)

Fair and Breezy
67.0 F

Hastings, Hastings Municipal Airport, NE (KHSI)

Fair and Breezy
66.0 F

Ord, Evelyn Sharp Field Airport, NE (KODX)

Fair and Breezy
62.0 F